Погода в Моллеме

Индия     15°13′32″N   74°09′37″E
темп.,
°C
ветер,
м/с
пор.,
м/с
влажн.,
%
обл.,
%
осадки,
мм/ч
давл.,
гПа
погр.,
м
12 апреля, пн
пн1223:30+23в11875 0.0 101313
02:30+22всв11959 0.0 101211
05:30+22в11958 0.0 101211
08:30+30сз12525 0.0 1014586
11:30+39з152236 0.0 10113576
14:30+30з355933 0.0 1010635
17:30+29зсз346197 0.0 1009676
20:30+25зюз238414 0.4 101297
13 апреля, вт
вт1323:30+24ю119442 0.4 101330
02:30+25зюз118972 0.0 1011269
05:30+24ююв018521 0.1 101130
08:30+29з10634 0.0 1013584
11:30+37з24293 0.0 10112471
14:30+32з454942 0.0 1009977
17:30+31з44522 0.1 1008972
20:30+24зюз01871 1.1 101113
14 апреля, ср
ср1423:30+23юв11911 1.1 101211
02:30+22всв009338 0.0 101011
05:30+22в119550 0.0 101114
08:30+28ююз11663 0.0 1013408
11:30+37з343017 0.0 10112375
14:30+34з654231 0.0 10081517
17:30+31з445446 0.1 10081009
20:30+24з118521 0.5 101252
15 апреля, чт
чт1523:30+23юв11918 0.5 101320
02:30+23вюв11946 0.0 101111
05:30+22св119612 0.0 101112
08:30+28ссз11633 0.0 1013510
11:30+36зсз33301 0.0 10112186
14:30+36з75347 0.0 10071715
17:30+30з345173 0.0 1008866
20:30+24з13757 0.0 1011144
16 апреля, пт
пт1623:30+22зюз11906 0.0 101119
02:30+21ююз019611 0.0 101012
05:30+21вюв11966 0.0 101113
08:30+28зсз12514 0.0 1012447
11:30+36зсз34191 0.0 10111890
14:30+37з76215 0.0 10072443
17:30+32зсз47321 0.0 1008940
20:30+23зюз11750 0.0 101128